Regional Weather Roundup
Issued by NWS

Home | Current Version | Previous Version | Graphics & Text | Print | Product List | Glossary On
Versions: 1 2 3 4 5 6 7 8 9 10 11 12 13 14 15 16 17 18 19 20 21 22 23 24 25 26 27 28 29 30 31 32 33 34 35 36 37 38 39 40 41 42 43 44 45 46 47 48 49 50
026
ASUS45 KPSR 141910
RWRAZ

ARIZONA HOURLY REGIONAL WEATHER ROUNDUP
NATIONAL WEATHER SERVICE PHOENIX AZ
1200 PM MST SUN FEB 14 2016

NOTE: FAIR INDICATES FEW OR NO CLOUDS BELOW 12,000 FEET WITH NO
SIGNIFICANT WEATHER AND/OR OBSTRUCTIONS TO VISIBILITY.

AZZ001>003-036-142000-
NORTHWEST ARIZONA

CITY           SKY/WX    TMP DP  RH WIND       PRES   REMARKS
BULLHEAD CITY  SUNNY     73  19  13 N23G29    30.08F
KINGMAN        SUNNY     65  23  20 NE9       30.17R
$$

AZZ004>008-015-016-018-142000-
NORTH CENTRAL ARIZONA

CITY           SKY/WX    TMP DP  RH WIND       PRES   REMARKS
GRAND CANYON   SUNNY     57  17  21 VRB7      30.22F
WILLIAMS       SUNNY     57  10  15 VRB5      30.25F
PRESCOTT       SUNNY     63  17  17 CALM      30.14F
FLAGSTAFF      SUNNY     54  13  19 CALM      30.19F
PAYSON         MOSUNNY   64  21  19 VRB6      30.15F
PAGE           SUNNY     50  25  37 N3        30.16F
$$

AZZ009>014-017-142000-
NORTHEAST ARIZONA

CITY           SKY/WX    TMP DP  RH WIND       PRES   REMARKS
WINSLOW        CLOUDY    55  23  28 CALM      30.16F
SAINT JOHNS    MOSUNNY   55  19  24 NW8       30.16F
WINDOW ROCK    CLOUDY    51   0  12 CALM      30.17F
SHOW LOW       MOSUNNY   54  18  24 NW5       30.20F
$$

AZZ023-142000-
GREATER PHOENIX AREA

CITY           SKY/WX    TMP DP  RH WIND       PRES   REMARKS
PHOENIX        MOSUNNY   75  27  17 SE6       30.01F
BUCKEYE        SUNNY     68  32  26 SE6       30.04F
GLENDALE       MOSUNNY   70  34  26 CALM      30.04S
LUKE AFB       SUNNY     71  29  20 VRB2      30.01S
DEER VALLEY    SUNNY     70  28  21 W5        30.02S
SCOTTSDALE     SUNNY     71  26  18 CALM      30.04R
MESA-FALCON    SUNNY    N/A N/A N/A CALM      30.03S
MESA-GATEWAY   MOSUNNY   70  32  24 CALM      30.04F
CHANDLER       MOSUNNY   70  30  23 CALM      30.04F
$$

AZZ027-028-142000-
SOUTHWEST MARICOPA COUNTY AND PINAL COUNTY

CITY           SKY/WX    TMP DP  RH WIND       PRES   REMARKS
CASA GRANDE    SUNNY     68  28  22 CALM      30.04F
GILA BEND      FAIR      72  25  17 N1        30.01F
$$

AZZ503-504-507>509-142000-
SOUTHEAST ARIZONA

CITY           SKY/WX    TMP DP  RH WIND       PRES   REMARKS
TUCSON         SUNNY     73  22  14 N3        30.07F
DAVIS-MONTHAN  SUNNY     71  23  16 W3        30.04F
RYAN FIELD     SUNNY     75  30  19 W5        30.06F
NOGALES        SUNNY     73  13  10 NW5       30.09F
SIERRA VISTA   SUNNY     70   8   8 VRB3      30.13F
DOUGLAS        SUNNY     72  10   9 N10       30.10F
SAFFORD        SUNNY     66  21  18 W7        30.05F
$$

AZZ020-021-025-026-031-142000-
SOUTHWEST ARIZONA

CITY           SKY/WX    TMP DP  RH WIND       PRES   REMARKS
YUMA           SUNNY     81  24  12 NW10      30.02F
$$

CAZ031-033-041-043-047-048-061-142000-
SOUTHERN CALIFORNIA

CITY           SKY/WX    TMP DP  RH WIND       PRES   REMARKS
DOWNTOWN L.A.  SUNNY     71  49  45 CALM      30.04F HAZE
L.A. AIRPORT   MOSUNNY   65  52  62 CALM      30.06S HAZE
SAN DIEGO      MOSUNNY   66  51  58 NW8       30.05F
BURBANK        SUNNY     80  28  15 E8        30.04F
ONTARIO        MOSUNNY   75  32  20 NW7       30.06F
RIVERSIDE      MOSUNNY   80  30  16 VRB5      30.05F
PALM SPRINGS   SUNNY     84  29  13 CALM      30.04F
EL CENTRO NAS  SUNNY     85  17   8 NW13      30.05R
IMPERIAL       SUNNY     84  29  13 N8        30.03R
BLYTHE         SUNNY     78  28  16 E9        30.05S
NEEDLES        SUNNY     77  21  12 N16       30.08F
$$

NVZ020-UTZ003-142000-
SOUTHERN NEVADA-UTAH

CITY           SKY/WX    TMP DP  RH WIND       PRES   REMARKS
LAS VEGAS      PTSUNNY   66  16  14 NE6       30.14R
SALT LAKE CITY LGT RAIN  33  31  92 SE9       30.27R FOG     WCI  25
$$

NMZ009-TXZ055-142000-
NEW MEXICO-WEST TEXAS

CITY           SKY/WX    TMP DP  RH WIND       PRES   REMARKS
ALBUQUERQUE    PTSUNNY   57  16  20 CALM      30.09F
EL PASO        MOSUNNY   71  12  10 N5        30.06F
$$


........................KEY........................
SKY/WX - SKY CONDITION/WEATHER
TMP    - TEMPERATURE IN FAHRENHEIT
DP     - DEW POINT IN FAHRENHEIT
RH     - RELATIVE HUMIDITY IN PERCENT
WIND   - DIRECTION AND SPEED IN MILES PER HOUR (MPH)
VRB    - VARIABLE WIND DIRECTION
PRES   - MEAN SEA LEVEL PRESSURE IN INCHES OF MERCURY
         F - FALLING PRESSURE   R - RISING PRESSURE
         S - STEADY PRESSURE
VSB    - VISIBILITY IN MILES
HX     - HEAT INDEX IN FAHRENHEIT
WCI    - WIND CHILL INDEX IN FAHRENHEIT
TC     - TEMPERATURE IN CELSIUS WHICH IS ALSO KNOWN AS
         TEMPERATURE IN CENTIGRADE
AFB    - AIR FORCE BASE
         LUKE AFB IS LUKE AIR FORCE BASE
         DAVIS-MONTHAN IS DAVIS-MONTHAN AIR FORCE BASE
NAS    - NAVAL AIR STATION
         EL CENTRO NAS IS EL CENTRO NAVAL AIR STATION
N/A    - NOT AVAILABLE





USA.gov is the U.S. government's official web portal to all federal, state and local government web resources and services.